Location: Newark
(45.2500°N, 7.5833°E)
Time: 19:23:03
(UTC+00:00)

Vanguard 3 - Pass Details

Date: 28 January 2020
Orbit: 508 x 3263 km, 33.3° (Epoch: 19 February)

Event Time Altitude Azimuth Distance (km) Brightness Sun altitude
Rises 18:44:23 0° 261° (W) 7,139 13.4 -23.6°
Reaches altitude 10° 18:49:15 10° 258° (WSW) 6,193 12.7 -24.4°
Maximum altitude 19:08:08 54° 189° (S) 3,342 10.1 -27.7°
Enters shadow 19:16:11 32° 131° (SE) 3,690 10.0 -29.2°
Drops below altitude 10° 19:21:59 10° 117° (ESE) 4,682 - -30.2°
Sets 19:25:06 0° 112° (ESE) 5,367 - -30.7°
